Home   Weather   Judenburg   Past weeks

Flag for Austria Past Weather in Judenburg, Styria, Austria — Yesterday and Last 2 Weeks

63 °F

Scattered clouds.

Feels Like: 63 °F
Forecast: 32 / 62 °F
Wind: 5 mph from Southwest

Location: Zeltweg

Current Time: Oct 24, 2016 at 2:30:17 PM

Latest Report: Oct 24, 2016 at 1:50 PM

Visibility: 19 mi

Pressure: 30.09 "Hg (27.58 "Hg at 739m altitude)

Humidity: 59%

Dew Point: 48 °F

Location of JudenburgLocation

Past Weather in Judenburg — Graph


Judenburg Temperature Yesterday

Maximum temperature yesterday: 55 °F (at 1:50 PM)
Minimum temperature yesterday: 34 °F (at 4:50 AM)
Average temperature yesterday: 43 °F

High & Low Weather Summary for the Past Weeks

High68 °F (Oct 16, 4:20 PM)100% (Oct 15, 5:50 AM)30.36 "Hg (Oct 15, 5:50 AM)
Low25 °F (Oct 13, 5:50 AM)36% (Oct 13, 4:20 PM)29.89 "Hg (Oct 11, 4:50 PM)
Average46 °F81%30.06 "Hg
* Reported Oct 9 1:50 PM — Oct 24 1:20 PM, Judenburg, Weather by CustomWeather, © 2016

Note: Actual official high and low records may vary slightly from our data, if they occured in-between our weather recording intervals... More about our weather records


Judenburg Weather History for the Previous 24 Hours

Scroll right to see more
Time TempWeatherWind HumidityBarometerVisibility
1:20 PM
Mon, Oct 24
59 °FPartly sunny.2 mph68%30.09 "Hg19 mi
12:50 PM55 °FBroken clouds.5 mph72%30.09 "Hg19 mi
12:20 PM54 °FPartly sunny.2 mph72%30.12 "Hg19 mi
11:50 AM52 °FBroken clouds.2 mph72%30.12 "Hg19 mi
11:20 AM50 °FBroken clouds.1 mph76%30.12 "Hg19 mi
10:50 AM46 °FBroken clouds.1 mph82%30.15 "Hg19 mi
10:20 AM46 °FBroken clouds.1 mph82%30.15 "Hg19 mi
9:50 AM43 °FBroken clouds.2 mph87%30.15 "Hg19 mi
9:20 AM41 °FBroken clouds.1 mph87%30.15 "Hg19 mi
8:50 AM37 °FBroken clouds.3 mph93%30.12 "Hg19 mi
8:20 AM37 °FPartly sunny.1 mph93%30.12 "Hg19 mi
7:50 AM36 °FBroken clouds.2 mph93%30.12 "Hg19 mi
7:20 AM37 °FPartly cloudy.2 mph93%30.12 "Hg19 mi
6:50 AM37 °FPassing clouds.5 mph93%30.09 "Hg12 mi
5:50 AM36 °FPassing clouds.2 mph93%30.09 "Hg12 mi
10:50 PM
Sun, Oct 23
41 °FPassing clouds.No wind87%30.07 "Hg12 mi
9:50 PM45 °FPassing clouds.8 mph81%30.04 "Hg12 mi
8:50 PM41 °FPassing clouds.No wind87%30.04 "Hg12 mi
7:50 PM45 °FPassing clouds.No wind81%30.04 "Hg12 mi
6:50 PM43 °FPassing clouds.7 mph87%30.01 "Hg19 mi
5:50 PM50 °FScattered clouds.7 mph67%30.01 "Hg31 mi
4:50 PM54 °FPassing clouds.10 mph51%30.01 "Hg31 mi
2:50 PM55 °FPassing clouds.5 mph47%29.98 "Hg31 mi
Weather by CustomWeather, © 2016

See weather overviewHow to use our weather pages